M I D A S
Marine Information and Data Acquisition System
Tripno 1870 of the Zeeleeuw from 2010-04-28 06:30:26 to 2010-04-28 15:18:35
Back to CruiseResearch ActivitiesStationsMapUnderway DataData graphs

EquipmentUnitsComments
TimeDGPSUTC
LatitudeDGPSDM.mWGS84
LongitudeDGPSDM.mWGS84
SpeedMeteo Stationm/sRelative wind speed
DirectionMeteo StationdegRelative wind direction
TemperatureMeteo Stationdeg CelciusAir temperature
PressureMeteo StationPaAtmospheric pressure
HumidityMeteo Station%Relative humidity
Missing or incorrect values are displayed as -999
Metereological data collected by the RV Zeeleeuw from 2010-04-28 06:55:22 to 2010-04-28 15:37:59
                                                                                    Next 1000 lines
Time Latitude Longitude Speed Direction Temperature Pressure Humidity
2010-04-28 06:55:31 51°13.661 2°55.956 1.9 6 14.2 102380 35
2010-04-28 06:55:37 51°13.662 2°55.951 2.1 14 14.2 102380 35
2010-04-28 06:55:42 51°13.664 2°55.946 1.9 15 14.3 102380 36
2010-04-28 06:55:47 51°13.665 2°55.941 1.6 13 14.3 102380 36
2010-04-28 06:55:52 51°13.667 2°55.935 2.3 5 14.3 102380 36
2010-04-28 06:55:57 51°13.668 2°55.928 1.2 19 14.3 102380 36
2010-04-28 06:56:03 51°13.671 2°55.919 0.8 17 14.3 102380 36
2010-04-28 06:56:07 51°13.672 2°55.913 0.2 6 14.3 102380 36
2010-04-28 06:56:12 51°13.674 2°55.905 1.6 4 14.3 102380 38
2010-04-28 06:56:17 51°13.676 2°55.897 1.8 3 14.3 102380 38
2010-04-28 06:56:23 51°13.678 2°55.887 1.7 5 14.3 102380 35
2010-04-28 06:56:27 51°13.68 2°55.881 1.7 2 14.3 102380 35
2010-04-28 06:56:32 51°13.682 2°55.872 2.2 355 14.3 102380 39
2010-04-28 06:56:38 51°13.683 2°55.862 1.3 13 14.3 102380 39
2010-04-28 06:56:42 51°13.684 2°55.856 1.1 13 14.3 102380 36
2010-04-28 06:56:47 51°13.686 2°55.847 1.5 18 14.3 102380 36
2010-04-28 06:56:52 51°13.687 2°55.838 1.7 11 14.3 102380 38
2010-04-28 06:56:57 51°13.688 2°55.83 1.7 22 14.3 102380 38
2010-04-28 06:57:02 51°13.689 2°55.822 1.8 18 14.3 102380 37
2010-04-28 06:57:07 51°13.69 2°55.814 1.6 20 14.3 102380 37
2010-04-28 06:57:12 51°13.691 2°55.806 1.3 26 14.3 102380 38
2010-04-28 06:57:17 51°13.691 2°55.799 1.2 25 14.3 102380 38
2010-04-28 06:57:22 51°13.692 2°55.792 1.1 26 14.3 102370 35
2010-04-28 06:57:27 51°13.692 2°55.785 1 23 14.3 102370 35
2010-04-28 06:57:32 51°13.692 2°55.779 1 38 14.3 102370 36
2010-04-28 06:57:37 51°13.692 2°55.774 0.9 32 14.3 102370 36
2010-04-28 06:57:43 51°13.693 2°55.769 1.2 29 14.3 102370 37
2010-04-28 06:57:47 51°13.693 2°55.767 1.1 28 14.3 102370 37
2010-04-28 06:57:52 51°13.694 2°55.766 1 20 14.4 102370 38
2010-04-28 06:57:57 51°13.695 2°55.764 1.3 22 14.4 102370 38
2010-04-28 06:58:03 51°13.695 2°55.763 1 22 14.4 102370 37
2010-04-28 06:58:07 51°13.696 2°55.762 1.8 21 14.4 102370 37
2010-04-28 06:58:12 51°13.695 2°55.761 1.6 23 14.4 102370 36
2010-04-28 06:58:17 51°13.695 2°55.759 1.3 26 14.4 102370 36
2010-04-28 06:58:23 51°13.694 2°55.758 1.5 33 14.4 102370 36
2010-04-28 06:58:27 51°13.694 2°55.756 1.4 37 14.4 102370 36
2010-04-28 06:58:32 51°13.693 2°55.754 1.5 32 14.4 102370 36
2010-04-28 06:58:37 51°13.692 2°55.751 1.7 19 14.4 102370 36
2010-04-28 06:58:43 51°13.692 2°55.749 2.7 28 14.4 102370 39
2010-04-28 06:58:47 51°13.692 2°55.748 1.8 35 14.4 102370 39
2010-04-28 06:58:52 51°13.693 2°55.748 1.2 25 14.4 102370 38
2010-04-28 06:58:58 51°13.694 2°55.748 2.3 31 14.4 102370 38
2010-04-28 06:59:02 51°13.695 2°55.748 2.3 42 14.5 102370 37
2010-04-28 06:59:07 51°13.696 2°55.748 1.7 33 14.5 102370 37
2010-04-28 06:59:12 51°13.698 2°55.748 1.9 29 14.5 102370 36
2010-04-28 06:59:18 51°13.7 2°55.748 1.4 35 14.5 102370 36
2010-04-28 06:59:22 51°13.702 2°55.748 1.7 39 14.5 102370 36
2010-04-28 06:59:27 51°13.705 2°55.747 1.2 58 14.5 102370 36
2010-04-28 06:59:32 51°13.708 2°55.746 0.7 24 14.5 102370 36
2010-04-28 06:59:38 51°13.712 2°55.744 0.2 54 14.5 102370 36
2010-04-28 06:59:43 51°13.715 2°55.741 0.1 28 14.5 102370 38
2010-04-28 06:59:47 51°13.718 2°55.739 0.2 52 14.5 102370 38
2010-04-28 06:59:53 51°13.723 2°55.734 0.2 23 14.5 102370 37
2010-04-28 06:59:58 51°13.727 2°55.73 0.1 55 14.5 102370 37
2010-04-28 07:00:03 51°13.732 2°55.725 -999 25 14.6 102370 37
2010-04-28 07:00:07 51°13.735 2°55.721 -999 305 14.6 102370 37
2010-04-28 07:00:12 51°13.74 2°55.715 0.1 315 14.6 102370 37
2010-04-28 07:00:18 51°13.747 2°55.708 0.1 306 14.6 102370 37
2010-04-28 07:00:23 51°13.753 2°55.702 0.1 328 14.6 102370 37
2010-04-28 07:00:27 51°13.758 2°55.698 -999 306 14.6 102370 37
2010-04-28 07:00:32 51°13.765 2°55.692 -999 324 14.6 102370 37
2010-04-28 07:00:37 51°13.773 2°55.685 -999 306 14.6 102370 37
2010-04-28 07:00:43 51°13.782 2°55.677 -999 349 14.6 102370 36
2010-04-28 07:00:47 51°13.789 2°55.672 -999 341 14.6 102370 36
2010-04-28 07:00:52 51°13.797 2°55.665 -999 340 14.7 102370 37
2010-04-28 07:00:57 51°13.806 2°55.659 -999 327 14.7 102370 37
2010-04-28 07:01:02 51°13.815 2°55.652 -999 351 14.7 102370 37
2010-04-28 07:01:07 51°13.825 2°55.644 -999 4 14.7 102370 37
2010-04-28 07:01:12 51°13.835 2°55.637 -999 345 14.7 102370 37
2010-04-28 07:01:17 51°13.845 2°55.63 -999 345 14.7 102370 37
2010-04-28 07:01:22 51°13.856 2°55.623 -999 324 14.7 102370 37
2010-04-28 07:01:27 51°13.866 2°55.616 -999 306 14.7 102370 37
2010-04-28 07:01:32 51°13.877 2°55.608 -999 24 14.7 102370 37
2010-04-28 07:01:38 51°13.89 2°55.599 -999 305 14.7 102370 37
2010-04-28 07:01:42 51°13.899 2°55.592 -999 323 14.7 102370 37
2010-04-28 07:01:47 51°13.91 2°55.584 -999 335 14.7 102370 37
2010-04-28 07:01:52 51°13.922 2°55.576 -999 339 14.7 102370 37
2010-04-28 07:01:58 51°13.935 2°55.567 -999 332 14.7 102370 37
2010-04-28 07:02:03 51°13.947 2°55.559 -999 334 14.7 102370 37
2010-04-28 07:02:07 51°13.956 2°55.552 -999 332 14.7 102370 37
2010-04-28 07:02:12 51°13.969 2°55.543 -999 335 14.8 102370 37
2010-04-28 07:02:17 51°13.981 2°55.534 -999 305 14.8 102370 37
2010-04-28 07:02:22 51°13.993 2°55.526 -999 24 14.8 102370 37
2010-04-28 07:02:27 51°14.006 2°55.517 -999 306 14.8 102370 37
2010-04-28 07:02:32 51°14.018 2°55.508 -999 24 14.8 102370 37
2010-04-28 07:02:37 51°14.031 2°55.498 -999 300 14.8 102370 37
2010-04-28 07:02:42 51°14.044 2°55.489 0.1 23 14.8 102370 37
2010-04-28 07:02:47 51°14.058 2°55.479 0.1 305 14.8 102370 37
2010-04-28 07:02:52 51°14.071 2°55.469 1.3 320 14.8 102370 37
2010-04-28 07:02:57 51°14.085 2°55.459 0.5 324 14.8 102370 37
2010-04-28 07:03:03 51°14.1 2°55.447 0.1 319 14.8 102360 37
2010-04-28 07:03:07 51°14.111 2°55.438 2.2 305 14.8 102360 37
2010-04-28 07:03:12 51°14.124 2°55.428 1.7 21 14.8 102370 36
2010-04-28 07:03:17 51°14.138 2°55.417 1.7 309 14.8 102370 36
2010-04-28 07:03:22 51°14.151 2°55.406 1.4 26 14.9 102360 34
2010-04-28 07:03:27 51°14.164 2°55.394 1.3 308 14.9 102360 34
2010-04-28 07:03:32 51°14.177 2°55.382 0.7 23 14.9 102360 38
2010-04-28 07:03:37 51°14.19 2°55.371 1.1 308 14.9 102360 38
2010-04-28 07:03:42 51°14.203 2°55.359 0.3 28 14.9 102360 37
2010-04-28 07:03:47 51°14.216 2°55.347 0.8 325 14.9 102360 37
2010-04-28 07:03:52 51°14.229 2°55.335 0.7 320 14.9 102360 35
2010-04-28 07:03:57 51°14.241 2°55.322 0.7 301 14.9 102360 35
2010-04-28 07:04:02 51°14.254 2°55.31 1.2 328 14.9 102360 37
2010-04-28 07:04:07 51°14.266 2°55.298 0.8 306 14.9 102360 37
2010-04-28 07:04:11 51°14.277 2°55.288 0.2 323 14.9 102360 35
2010-04-28 07:04:16 51°14.289 2°55.276 0.1 306 14.9 102360 35
2010-04-28 07:04:21 51°14.302 2°55.263 -999 325 14.9 102360 35
2010-04-28 07:04:26 51°14.314 2°55.251 0.4 332 14.9 102360 35
2010-04-28 07:04:31 51°14.326 2°55.238 0.2 325 14.9 102360 37
2010-04-28 07:04:36 51°14.339 2°55.226 0.1 328 14.9 102360 37
2010-04-28 07:04:41 51°14.352 2°55.213 -999 323 14.9 102360 35
2010-04-28 07:04:46 51°14.365 2°55.201 -999 332 14.9 102360 35
2010-04-28 07:04:51 51°14.378 2°55.188 0.1 322 15 102360 37
2010-04-28 07:04:55 51°14.388 2°55.178 1.4 302 15 102360 37
2010-04-28 07:05:00 51°14.401 2°55.165 1.6 19 15 102360 36
2010-04-28 07:05:05 51°14.415 2°55.151 1.3 277 15 102360 36
2010-04-28 07:05:10 51°14.428 2°55.137 1.4 26 15 102360 35
2010-04-28 07:05:15 51°14.441 2°55.123 1.3 301 15 102360 35
2010-04-28 07:05:19 51°14.452 2°55.113 1.5 318 15 102360 38
2010-04-28 07:05:24 51°14.466 2°55.099 2.4 309 15 102360 38
2010-04-28 07:05:29 51°14.48 2°55.084 1.5 22 15 102360 38
2010-04-28 07:05:34 51°14.493 2°55.07 1.8 303 15 102360 38
2010-04-28 07:05:39 51°14.506 2°55.055 1.8 320 15 102360 38
2010-04-28 07:05:44 51°14.52 2°55.039 2 300 15 102360 38
2010-04-28 07:05:49 51°14.532 2°55.023 2.3 26 15 102350 37
2010-04-28 07:05:54 51°14.544 2°55.005 2.4 304 15 102350 37
2010-04-28 07:05:59 51°14.556 2°54.988 2.5 22 15 102350 34
2010-04-28 07:06:03 51°14.566 2°54.975 2 308 15 102350 34
2010-04-28 07:06:09 51°14.58 2°54.956 1.6 21 15 102350 35
2010-04-28 07:06:14 51°14.592 2°54.941 1.3 304 15 102350 35
2010-04-28 07:06:19 51°14.605 2°54.928 1.2 249 15 102350 37
2010-04-28 07:06:23 51°14.615 2°54.917 0.8 301 15 102350 37
2010-04-28 07:06:29 51°14.631 2°54.9 0.2 23 15 102350 38
2010-04-28 07:06:34 51°14.644 2°54.885 0.1 306 15 102350 38
2010-04-28 07:06:39 51°14.658 2°54.871 0.1 29 15.1 102350 37
2010-04-28 07:06:43 51°14.669 2°54.859 0.5 310 15.1 102350 37
2010-04-28 07:06:49 51°14.686 2°54.842 0.7 322 15.1 102350 36
2010-04-28 07:06:54 51°14.7 2°54.827 0.1 302 15.1 102350 36
2010-04-28 07:06:59 51°14.714 2°54.812 0.1 26 15.1 102350 36
2010-04-28 07:07:04 51°14.729 2°54.797 2.3 301 15.1 102350 36
2010-04-28 07:07:09 51°14.743 2°54.782 2.4 315 15.1 102350 36
2010-04-28 07:07:14 51°14.758 2°54.767 2 324 15.1 102350 36
2010-04-28 07:07:19 51°14.772 2°54.751 2 319 15.1 102350 35
2010-04-28 07:07:24 51°14.787 2°54.735 1.7 308 15.1 102350 35
2010-04-28 07:07:29 51°14.802 2°54.719 2.3 29 15.1 102350 37
2010-04-28 07:07:34 51°14.816 2°54.703 2.3 301 15.1 102350 37
2010-04-28 07:07:39 51°14.832 2°54.687 2.5 25 15.1 102340 36
2010-04-28 07:07:44 51°14.847 2°54.671 2.3 307 15.1 102340 36
2010-04-28 07:07:49 51°14.862 2°54.656 2.2 28 15.1 102350 37
2010-04-28 07:07:54 51°14.877 2°54.641 2.6 308 15.1 102350 37
2010-04-28 07:07:59 51°14.893 2°54.626 2.5 29 15.1 102350 35
2010-04-28 07:08:04 51°14.908 2°54.61 2.2 304 15.1 102350 35
2010-04-28 07:08:09 51°14.923 2°54.594 2.4 21 15.1 102340 35
2010-04-28 07:08:14 51°14.939 2°54.579 2.1 304 15.1 102340 35
2010-04-28 07:08:19 51°14.954 2°54.564 2.2 316 15.1 102350 35
2010-04-28 07:08:23 51°14.966 2°54.552 2.1 308 15.1 102350 35
2010-04-28 07:08:29 51°14.983 2°54.534 2.5 27 15.1 102350 35
2010-04-28 07:08:34 51°14.998 2°54.519 1.5 302 15.1 102350 35
2010-04-28 07:08:39 51°15.012 2°54.503 1.9 28 15.1 102350 34
2010-04-28 07:08:43 51°15.024 2°54.494 1.5 300 15.1 102350 34
2010-04-28 07:08:48 51°15.04 2°54.481 1.4 318 15.2 102350 37
2010-04-28 07:08:54 51°15.06 2°54.469 1.5 306 15.2 102350 37
2010-04-28 07:08:59 51°15.076 2°54.459 1.3 326 15.2 102350 36
2010-04-28 07:09:03 51°15.089 2°54.453 1.1 281 15.2 102350 36
2010-04-28 07:09:07 51°15.102 2°54.447 0.8 325 15.2 102350 36
2010-04-28 07:09:14 51°15.125 2°54.438 0.2 303 15.2 102350 36
2010-04-28 07:09:19 51°15.141 2°54.431 0.9 322 15.2 102350 35
2010-04-28 07:09:23 51°15.154 2°54.426 0.4 330 15.2 102350 35
2010-04-28 07:09:28 51°15.17 2°54.423 0.1 342 15.2 102350 36
2010-04-28 07:09:33 51°15.185 2°54.42 0.1 350 15.2 102350 36
2010-04-28 07:09:39 51°15.205 2°54.419 0.1 351 15.2 102360 38
2010-04-28 07:09:43 51°15.218 2°54.418 0.1 354 15.2 102360 38
2010-04-28 07:09:48 51°15.233 2°54.42 1.4 350 15.2 102350 36
2010-04-28 07:09:54 51°15.252 2°54.422 1.5 352 15.2 102350 36
2010-04-28 07:09:58 51°15.265 2°54.426 2 348 15.2 102350 37
2010-04-28 07:10:03 51°15.28 2°54.431 2 351 15.2 102350 37
2010-04-28 07:10:09 51°15.298 2°54.439 1.9 347 15.2 102360 38
2010-04-28 07:10:14 51°15.313 2°54.447 2.5 353 15.2 102360 38
2010-04-28 07:10:19 51°15.327 2°54.456 2.5 347 15.1 102360 38
2010-04-28 07:10:23 51°15.338 2°54.464 3 352 15.1 102360 38
2010-04-28 07:10:29 51°15.355 2°54.476 2.8 349 15.1 102360 36
2010-04-28 07:10:34 51°15.369 2°54.487 3.3 350 15.1 102360 36
2010-04-28 07:10:39 51°15.383 2°54.497 3.3 355 15.1 102360 36
2010-04-28 07:10:43 51°15.394 2°54.507 3.7 356 15.1 102360 36
2010-04-28 07:10:49 51°15.41 2°54.523 3.9 357 15 102350 36
2010-04-28 07:10:54 51°15.423 2°54.537 4.5 355 15 102350 36
2010-04-28 07:10:59 51°15.435 2°54.554 4.2 354 15 102360 36
2010-04-28 07:11:03 51°15.445 2°54.567 4.7 355 15 102360 36
2010-04-28 07:11:08 51°15.455 2°54.585 4.6 356 14.9 102350 36
2010-04-28 07:11:14 51°15.468 2°54.606 5.8 357 14.9 102350 36
2010-04-28 07:11:19 51°15.477 2°54.626 5.3 357 14.8 102350 35
2010-04-28 07:11:23 51°15.485 2°54.641 5.3 356 14.8 102350 35
2010-04-28 07:11:28 51°15.494 2°54.661 4.8 356 14.8 102350 37
2010-04-28 07:11:34 51°15.505 2°54.685 5.5 356 14.8 102350 37
2010-04-28 07:11:39 51°15.514 2°54.705 5 356 14.7 102350 38
2010-04-28 07:11:43 51°15.522 2°54.721 5.2 356 14.7 102350 38
2010-04-28 07:11:47 51°15.528 2°54.738 5.5 355 14.7 102350 38
2010-04-28 07:11:54 51°15.54 2°54.767 6.4 356 14.7 102350 38
2010-04-28 07:11:59 51°15.548 2°54.788 6 356 14.6 102350 38
2010-04-28 07:12:03 51°15.554 2°54.805 6.1 357 14.6 102350 38
2010-04-28 07:12:08 51°15.561 2°54.827 5.7 356 14.6 102350 38
2010-04-28 07:12:14 51°15.57 2°54.854 5.7 354 14.6 102350 38
2010-04-28 07:12:19 51°15.578 2°54.875 5.7 355 14.5 102350 36
2010-04-28 07:12:23 51°15.584 2°54.893 5.4 353 14.5 102350 36
2010-04-28 07:12:28 51°15.592 2°54.913 6 355 14.5 102350 38
2010-04-28 07:12:34 51°15.601 2°54.939 5.4 354 14.5 102350 38
2010-04-28 07:12:38 51°15.609 2°54.955 5.9 355 14.5 102350 38
2010-04-28 07:12:43 51°15.617 2°54.976 5.3 356 14.5 102350 38
2010-04-28 07:12:49 51°15.629 2°54.999 5.5 356 14.5 102350 38
2010-04-28 07:12:54 51°15.637 2°55.019 5.5 356 14.5 102350 38
2010-04-28 07:12:59 51°15.647 2°55.039 5.5 358 14.4 102350 39
2010-04-28 07:13:03 51°15.655 2°55.055 5.7 358 14.4 102350 39
2010-04-28 07:13:08 51°15.664 2°55.074 5.2 358 14.4 102350 37
2010-04-28 07:13:14 51°15.675 2°55.098 5.1 358 14.4 102350 37
2010-04-28 07:13:19 51°15.685 2°55.118 5.7 358 14.4 102350 39
2010-04-28 07:13:23 51°15.692 2°55.134 5.4 357 14.4 102350 39
2010-04-28 07:13:28 51°15.701 2°55.155 6.2 359 14.3 102350 38
2010-04-28 07:13:34 51°15.711 2°55.181 5.4 355 14.3 102350 38
2010-04-28 07:13:39 51°15.719 2°55.202 6 357 14.3 102350 36
2010-04-28 07:13:43 51°15.725 2°55.219 5.7 356 14.3 102350 36
2010-04-28 07:13:48 51°15.734 2°55.241 6 355 14.3 102350 37
2010-04-28 07:13:54 51°15.742 2°55.267 5.7 354 14.3 102350 37
2010-04-28 07:13:59 51°15.75 2°55.289 5.4 354 14.3 102350 36
2010-04-28 07:14:03 51°15.756 2°55.306 5.4 352 14.3 102350 36
2010-04-28 07:14:08 51°15.764 2°55.328 5.7 357 14.3 102350 36
2010-04-28 07:14:13 51°15.773 2°55.35 5.2 357 14.3 102350 36
2010-04-28 07:14:19 51°15.782 2°55.376 5.3 354 14.3 102350 36
2010-04-28 07:14:23 51°15.789 2°55.393 4.9 352 14.3 102350 36
2010-04-28 07:14:29 51°15.799 2°55.418 5.1 353 14.3 102350 38
2010-04-28 07:14:34 51°15.807 2°55.44 5.1 352 14.3 102350 38
2010-04-28 07:14:38 51°15.813 2°55.457 4.9 350 14.3 102350 36
2010-04-28 07:14:43 51°15.821 2°55.479 5.1 351 14.3 102350 36
2010-04-28 07:14:48 51°15.828 2°55.501 5 350 14.3 102360 38
2010-04-28 07:14:54 51°15.838 2°55.527 5.2 352 14.3 102360 38
2010-04-28 07:14:59 51°15.845 2°55.55 5.2 351 14.3 102360 39
2010-04-28 07:15:03 51°15.852 2°55.567 4.8 350 14.3 102360 39
2010-04-28 07:15:08 51°15.859 2°55.589 5.5 352 14.3 102350 37
2010-04-28 07:15:14 51°15.868 2°55.616 4.8 353 14.3 102350 37
2010-04-28 07:15:19 51°15.876 2°55.638 5 353 14.3 102360 37
2010-04-28 07:15:23 51°15.882 2°55.655 5.7 354 14.3 102360 37
2010-04-28 07:15:28 51°15.89 2°55.677 5.3 353 14.3 102360 39
2010-04-28 07:15:34 51°15.9 2°55.703 5 354 14.3 102360 39
2010-04-28 07:15:39 51°15.908 2°55.725 4.8 354 14.2 102360 36
2010-04-28 07:15:43 51°15.915 2°55.742 5.1 355 14.2 102360 36
2010-04-28 07:15:47 51°15.921 2°55.759 5.3 355 14.2 102360 36
2010-04-28 07:15:54 51°15.933 2°55.789 5.1 354 14.2 102360 36
2010-04-28 07:15:59 51°15.941 2°55.811 5.5 355 14.2 102360 37
2010-04-28 07:16:03 51°15.948 2°55.829 5.4 356 14.2 102360 37
2010-04-28 07:16:08 51°15.955 2°55.851 5.3 355 14.2 102360 36
2010-04-28 07:16:13 51°15.963 2°55.873 5.2 356 14.2 102360 36
2010-04-28 07:16:19 51°15.972 2°55.9 5 356 14.2 102360 36
2010-04-28 07:16:23 51°15.979 2°55.918 5 354 14.2 102360 36
2010-04-28 07:16:28 51°15.987 2°55.941 5.4 355 14.2 102360 38
2010-04-28 07:16:34 51°15.996 2°55.968 5.6 355 14.2 102360 38
2010-04-28 07:16:39 51°16.004 2°55.99 5.4 354 14.3 102360 37
2010-04-28 07:16:43 51°16.011 2°56.008 5.1 354 14.3 102360 37
2010-04-28 07:16:48 51°16.019 2°56.03 5.1 354 14.3 102360 38
2010-04-28 07:16:53 51°16.027 2°56.053 5.7 354 14.3 102360 38
2010-04-28 07:16:59 51°16.036 2°56.08 5.3 355 14.3 102360 38
2010-04-28 07:17:04 51°16.044 2°56.103 5.5 353 14.3 102360 38
2010-04-28 07:17:08 51°16.05 2°56.122 5.2 355 14.3 102360 37
2010-04-28 07:17:14 51°16.06 2°56.149 5 354 14.3 102360 37
2010-04-28 07:17:19 51°16.068 2°56.172 5.3 354 14.3 102360 36
2010-04-28 07:17:23 51°16.074 2°56.19 5 354 14.3 102360 36
2010-04-28 07:17:28 51°16.082 2°56.213 5.2 354 14.3 102360 38
2010-04-28 07:17:34 51°16.092 2°56.241 4.7 353 14.3 102360 38
2010-04-28 07:17:39 51°16.1 2°56.263 5.4 353 14.3 102360 36
2010-04-28 07:17:43 51°16.106 2°56.282 5.5 355 14.3 102360 36
2010-04-28 07:17:49 51°16.116 2°56.309 5 353 14.3 102360 36
2010-04-28 07:17:54 51°16.124 2°56.332 5.1 348 14.3 102360 36
2010-04-28 07:17:59 51°16.132 2°56.355 5.4 350 14.3 102360 37
2010-04-28 07:18:03 51°16.137 2°56.374 5 349 14.3 102360 37
2010-04-28 07:18:08 51°16.145 2°56.398 5.5 350 14.3 102360 38
2010-04-28 07:18:14 51°16.152 2°56.428 5 349 14.3 102360 38
2010-04-28 07:18:19 51°16.159 2°56.452 5.3 351 14.3 102360 36
2010-04-28 07:18:23 51°16.164 2°56.471 5.1 349 14.3 102360 36
2010-04-28 07:18:27 51°16.169 2°56.491 5.4 351 14.3 102360 36
2010-04-28 07:18:33 51°16.176 2°56.52 5.4 351 14.3 102360 36
2010-04-28 07:18:39 51°16.182 2°56.55 5.5 350 14.3 102360 39
2010-04-28 07:18:43 51°16.186 2°56.57 5.9 352 14.3 102360 39
2010-04-28 07:18:48 51°16.191 2°56.596 6.1 350 14.3 102360 38
2010-04-28 07:18:54 51°16.197 2°56.626 6.5 352 14.3 102360 38
2010-04-28 07:18:59 51°16.202 2°56.652 6 353 14.3 102360 36
2010-04-28 07:19:03 51°16.206 2°56.672 5.8 350 14.3 102360 36
2010-04-28 07:19:09 51°16.212 2°56.702 6.1 352 14.3 102360 38
2010-04-28 07:19:14 51°16.218 2°56.727 6.1 351 14.3 102360 38
2010-04-28 07:19:19 51°16.224 2°56.751 5.9 351 14.3 102360 37
2010-04-28 07:19:23 51°16.229 2°56.771 6 348 14.3 102360 37
2010-04-28 07:19:28 51°16.235 2°56.795 5.6 350 14.3 102360 36
2010-04-28 07:19:34 51°16.243 2°56.824 4.9 351 14.3 102360 36
2010-04-28 07:19:39 51°16.249 2°56.845 5.1 349 14.3 102360 37
2010-04-28 07:19:43 51°16.254 2°56.862 5 351 14.3 102360 37
2010-04-28 07:19:48 51°16.261 2°56.885 5.1 351 14.3 102360 37
2010-04-28 07:19:54 51°16.269 2°56.912 5.7 352 14.3 102360 37
2010-04-28 07:19:59 51°16.275 2°56.935 5.4 351 14.3 102360 38
2010-04-28 07:20:03 51°16.28 2°56.953 5.6 351 14.3 102360 38
2010-04-28 07:20:08 51°16.286 2°56.976 5.3 351 14.4 102360 38
2010-04-28 07:20:14 51°16.292 2°57.003 5.5 355 14.4 102360 38
2010-04-28 07:20:19 51°16.297 2°57.025 5.7 354 14.4 102360 36
2010-04-28 07:20:23 51°16.301 2°57.043 5.6 353 14.4 102360 36
2010-04-28 07:20:27 51°16.305 2°57.061 6.1 351 14.4 102360 37
2010-04-28 07:20:34 51°16.311 2°57.093 5.9 350 14.4 102360 37
2010-04-28 07:20:39 51°16.315 2°57.116 6 350 14.4 102350 37
2010-04-28 07:20:43 51°16.319 2°57.134 6.2 351 14.4 102350 37
2010-04-28 07:20:48 51°16.324 2°57.157 6.1 351 14.4 102350 36
2010-04-28 07:20:53 51°16.329 2°57.179 6.1 351 14.4 102350 36
2010-04-28 07:20:59 51°16.335 2°57.207 5.9 352 14.4 102350 36
2010-04-28 07:21:03 51°16.339 2°57.224 6.5 355 14.4 102350 36
2010-04-28 07:21:08 51°16.345 2°57.247 5 353 14.4 102350 38
2010-04-28 07:21:14 51°16.355 2°57.271 5.6 356 14.4 102350 38
2010-04-28 07:21:19 51°16.362 2°57.293 4.8 354 14.4 102360 36
2010-04-28 07:21:23 51°16.371 2°57.307 5 356 14.4 102360 36
2010-04-28 07:21:29 51°16.381 2°57.332 4.9 353 14.4 102350 36
2010-04-28 07:21:34 51°16.392 2°57.35 5.5 357 14.4 102350 36
2010-04-28 07:21:39 51°16.401 2°57.369 5 354 14.4 102350 36
2010-04-28 07:21:43 51°16.41 2°57.383 5.2 356 14.4 102350 36
2010-04-28 07:21:48 51°16.421 2°57.401 4.8 355 14.5 102350 36
2010-04-28 07:21:54 51°16.435 2°57.422 4.6 356 14.5 102350 36
2010-04-28 07:21:59 51°16.446 2°57.44 4.7 356 14.5 102350 35
2010-04-28 07:22:03 51°16.455 2°57.454 4.5 357 14.5 102350 35
2010-04-28 07:22:08 51°16.467 2°57.471 4.4 357 14.5 102350 36
2010-04-28 07:22:14 51°16.481 2°57.492 4.2 358 14.5 102350 36
2010-04-28 07:22:19 51°16.493 2°57.51 4.7 358 14.6 102350 36
2010-04-28 07:22:23 51°16.502 2°57.524 5 358 14.6 102350 36
2010-04-28 07:22:28 51°16.513 2°57.542 4.6 359 14.5 102350 38
2010-04-28 07:22:34 51°16.527 2°57.564 4.9 358 14.5 102350 38
2010-04-28 07:22:39 51°16.538 2°57.583 5.2 357 14.6 102350 37
2010-04-28 07:22:43 51°16.547 2°57.599 4.7 357 14.6 102350 37
2010-04-28 07:22:48 51°16.557 2°57.618 5.1 357 14.6 102350 35
2010-04-28 07:22:54 51°16.571 2°57.641 4.3 355 14.6 102350 35
2010-04-28 07:22:59 51°16.582 2°57.66 4.3 355 14.6 102350 35
2010-04-28 07:23:03 51°16.591 2°57.675 4.4 356 14.6 102350 35
2010-04-28 07:23:08 51°16.603 2°57.694 4.1 358 14.6 102350 35
2010-04-28 07:23:13 51°16.614 2°57.712 4 356 14.6 102350 35
2010-04-28 07:23:19 51°16.629 2°57.734 4 355 14.6 102350 35
2010-04-28 07:23:23 51°16.638 2°57.749 4.1 356 14.6 102350 35
2010-04-28 07:23:28 51°16.65 2°57.767 4.3 353 14.6 102350 35
2010-04-28 07:23:34 51°16.665 2°57.788 3.8 355 14.6 102350 35
2010-04-28 07:23:39 51°16.676 2°57.807 3.8 353 14.6 102350 38
2010-04-28 07:23:43 51°16.686 2°57.822 4.1 353 14.6 102350 38
2010-04-28 07:23:49 51°16.699 2°57.845 4.1 350 14.6 102350 38
2010-04-28 07:23:54 51°16.711 2°57.864 4.7 351 14.6 102350 38
2010-04-28 07:23:54 51°16.711 2°57.864 4.7 351 14.6 102350 38
2010-04-28 07:24:05 51°16.736 2°57.908 4.6 350 14.7 102350 38
2010-04-28 07:24:05 51°16.736 2°57.908 4.6 350 14.7 102350 38
2010-04-28 07:24:15 51°16.758 2°57.947 4.5 352 14.7 102350 36
2010-04-28 07:24:15 51°16.758 2°57.947 4.5 352 14.7 102350 36
2010-04-28 07:24:29 51°16.789 2°58.002 4.6 351 14.6 102350 39
2010-04-28 07:24:34 51°16.801 2°58.021 5 353 14.6 102350 39
2010-04-28 07:24:34 51°16.801 2°58.021 5 353 14.6 102350 39
2010-04-28 07:24:43 51°16.822 2°58.055 4.8 353 14.6 102350 36
2010-04-28 07:24:48 51°16.833 2°58.074 4.6 353 14.6 102350 37
2010-04-28 07:24:54 51°16.848 2°58.097 4.9 353 14.6 102350 37
2010-04-28 07:24:59 51°16.859 2°58.116 5 353 14.5 102350 38
2010-04-28 07:24:59 51°16.859 2°58.116 5 353 14.5 102350 38
2010-04-28 07:25:09 51°16.882 2°58.154 4.7 355 14.5 102350 37
2010-04-28 07:25:15 51°16.896 2°58.176 5.1 354 14.5 102350 37
2010-04-28 07:25:19 51°16.905 2°58.192 4.9 354 14.5 102350 37
2010-04-28 07:25:35 51°16.941 2°58.255 5.4 354 14.5 102350 37
2010-04-28 07:25:39 51°16.95 2°58.271 5.3 354 14.5 102350 37
2010-04-28 07:25:44 51°16.961 2°58.291 4.9 354 14.5 102350 37
2010-04-28 07:25:50 51°16.974 2°58.316 5.5 355 14.5 102350 37
2010-04-28 07:25:50 51°16.974 2°58.316 5.5 355 14.5 102350 37
2010-04-28 07:26:03 51°17.004 2°58.367 5.2 354 14.5 102350 37
2010-04-28 07:26:03 51°17.004 2°58.367 5.2 354 14.5 102350 37
2010-04-28 07:26:17 51°17.035 2°58.423 5.6 353 14.5 102350 37
2010-04-28 07:26:17 51°17.035 2°58.423 5.6 353 14.4 102350 39
2010-04-28 07:26:34 51°17.067 2°58.496 6.1 355 14.4 102350 39
2010-04-28 07:26:49 51°17.094 2°58.564 5.7 357 14.4 102350 36
2010-04-28 07:26:54 51°17.104 2°58.584 5.7 356 14.4 102350 36
2010-04-28 07:26:54 51°17.104 2°58.584 5.7 356 14.4 102350 36
2010-04-28 07:27:03 51°17.123 2°58.621 4.7 358 14.4 102340 38
2010-04-28 07:27:08 51°17.135 2°58.64 4.4 357 14.4 102350 39
2010-04-28 07:27:14 51°17.15 2°58.661 4.3 358 14.4 102350 39
2010-04-28 07:27:19 51°17.162 2°58.678 4.3 356 14.4 102340 38
2010-04-28 07:27:19 51°17.162 2°58.678 4.3 356 14.4 102340 38
2010-04-28 07:27:30 51°17.191 2°58.713 3.9 356 14.4 102350 39
2010-04-28 07:27:30 51°17.191 2°58.713 3.9 356 14.4 102350 39
2010-04-28 07:27:40 51°17.218 2°58.742 3.6 358 14.4 102350 37
2010-04-28 07:27:46 51°17.235 2°58.759 3.9 356 14.4 102350 37
2010-04-28 07:28:02 51°17.28 2°58.803 3.6 357 14.4 102350 37
2010-04-28 07:28:07 51°17.293 2°58.817 3.5 357 14.4 102350 37
2010-04-28 07:28:11 51°17.304 2°58.828 3.6 358 14.4 102350 37
2010-04-28 07:28:16 51°17.318 2°58.841 3.7 359 14.4 102350 37
2010-04-28 07:28:22 51°17.334 2°58.857 3.6 1 14.4 102350 39
2010-04-28 07:28:27 51°17.347 2°58.87 3.5 2 14.4 102350 39
2010-04-28 07:28:31 51°17.357 2°58.881 3.2 359 14.4 102350 39
2010-04-28 07:28:36 51°17.368 2°58.895 3.7 357 14.4 102350 39
2010-04-28 07:28:41 51°17.379 2°58.91 4.3 359 14.4 102350 37
2010-04-28 07:28:47 51°17.388 2°58.929 4.7 -999 14.4 102350 37
2010-04-28 07:28:51 51°17.393 2°58.942 5 359 14.4 102350 37
2010-04-28 07:28:57 51°17.397 2°58.962 5.2 359 14.4 102350 37
2010-04-28 07:29:02 51°17.399 2°58.977 5.3 357 14.4 102350 39
2010-04-28 07:29:07 51°17.399 2°58.991 5.8 358 14.4 102350 39
2010-04-28 07:29:11 51°17.398 2°59.002 5.8 356 14.4 102350 37
2010-04-28 07:29:17 51°17.396 2°59.017 5.4 355 14.4 102350 37
2010-04-28 07:29:21 51°17.394 2°59.026 6 354 14.3 102340 39
2010-04-28 07:29:27 51°17.39 2°59.038 5.9 350 14.3 102340 39
2010-04-28 07:29:31 51°17.386 2°59.045 5.3 349 14.3 102340 37
2010-04-28 07:29:36 51°17.382 2°59.054 5.6 347 14.3 102340 37
2010-04-28 07:29:42 51°17.377 2°59.063 5.3 278 14.3 102340 37
2010-04-28 07:29:47 51°17.372 2°59.069 5.5 347 14.3 102340 37
2010-04-28 07:29:51 51°17.368 2°59.074 5.8 347 14.3 102340 37
2010-04-28 07:29:57 51°17.362 2°59.08 5.6 345 14.3 102340 37
2010-04-28 07:30:02 51°17.357 2°59.085 5.6 283 14.3 102340 38
2010-04-28 07:30:07 51°17.352 2°59.089 5.9 346 14.3 102340 37
2010-04-28 07:30:11 51°17.348 2°59.092 5.2 284 14.3 102340 37
2010-04-28 07:30:17 51°17.342 2°59.096 5.6 345 14.3 102340 37
2010-04-28 07:30:22 51°17.337 2°59.1 5.8 284 14.3 102340 37
2010-04-28 07:30:27 51°17.332 2°59.103 5.4 343 14.3 102340 37
2010-04-28 07:30:31 51°17.328 2°59.105 5.3 345 14.3 102330 37
2010-04-28 07:30:37 51°17.323 2°59.109 5.3 344 14.3 102330 37
2010-04-28 07:30:41 51°17.319 2°59.111 5 279 14.3 102340 39
2010-04-28 07:30:47 51°17.313 2°59.113 5.3 342 14.3 102340 37
2010-04-28 07:30:51 51°17.31 2°59.115 4.8 279 14.3 102340 37
2010-04-28 07:30:57 51°17.304 2°59.117 5.2 341 14.3 102340 37
2010-04-28 07:31:02 51°17.299 2°59.118 4.9 340 14.3 102340 37
2010-04-28 07:31:07 51°17.294 2°59.119 5.1 339 14.3 102340 37
2010-04-28 07:31:11 51°17.29 2°59.119 5 279 14.3 102340 38
2010-04-28 07:31:17 51°17.283 2°59.12 5.1 335 14.3 102340 38
2010-04-28 07:31:21 51°17.279 2°59.12 5.6 281 14.3 102340 39
2010-04-28 07:31:27 51°17.274 2°59.12 5.1 335 14.3 102340 39
2010-04-28 07:31:31 51°17.269 2°59.119 5.8 278 14.4 102340 37
2010-04-28 07:31:37 51°17.263 2°59.119 5.6 335 14.4 102340 37
2010-04-28 07:31:42 51°17.258 2°59.118 5.6 285 14.4 102340 38
2010-04-28 07:31:47 51°17.253 2°59.118 5.6 332 14.4 102340 38
2010-04-28 07:31:51 51°17.249 2°59.117 5.1 284 14.4 102340 37
2010-04-28 07:31:56 51°17.243 2°59.116 5.8 332 14.5 102340 38
2010-04-28 07:32:02 51°17.237 2°59.115 5 329 14.5 102340 38
2010-04-28 07:32:07 51°17.232 2°59.113 5.5 329 14.5 102340 38
2010-04-28 07:32:11 51°17.228 2°59.112 5.3 284 14.5 102340 38
2010-04-28 07:32:17 51°17.222 2°59.109 5 326 14.5 102340 38
2010-04-28 07:32:22 51°17.216 2°59.107 5.2 284 14.5 102340 39
2010-04-28 07:32:27 51°17.211 2°59.104 5.1 324 14.6 102340 37
2010-04-28 07:32:31 51°17.207 2°59.102 5.2 278 14.6 102340 37
2010-04-28 07:32:37 51°17.201 2°59.098 5 325 14.6 102340 37
2010-04-28 07:32:41 51°17.196 2°59.096 5.3 284 14.6 102340 36
2010-04-28 07:32:47 51°17.19 2°59.091 5.3 321 14.6 102340 37
2010-04-28 07:32:51 51°17.186 2°59.088 5.5 283 14.6 102340 37
2010-04-28 07:32:57 51°17.18 2°59.083 4.8 320 14.6 102340 37
2010-04-28 07:33:02 51°17.175 2°59.079 5 320 14.6 102340 36
2010-04-28 07:33:07 51°17.17 2°59.074 5 318 14.6 102340 36
2010-04-28 07:33:11 51°17.166 2°59.071 4.7 284 14.6 102340 36
2010-04-28 07:33:17 51°17.161 2°59.065 4.7 316 14.6 102340 36
2010-04-28 07:33:21 51°17.157 2°59.061 4.8 279 14.6 102340 37
2010-04-28 07:33:27 51°17.152 2°59.055 5.4 35 14.6 102340 37
2010-04-28 07:33:31 51°17.148 2°59.051 5.3 279 14.7 102340 38
2010-04-28 07:33:37 51°17.143 2°59.044 4.9 37 14.7 102340 38
2010-04-28 07:33:41 51°17.14 2°59.04 5.5 282 14.7 102340 38
2010-04-28 07:33:47 51°17.135 2°59.033 5.2 34 14.7 102340 38
2010-04-28 07:33:51 51°17.132 2°59.029 4.7 285 14.7 102340 36
2010-04-28 07:33:57 51°17.127 2°59.022 4.8 38 14.7 102340 36
2010-04-28 07:34:02 51°17.123 2°59.016 4.3 -999 14.7 102340 38
2010-04-28 07:34:07 51°17.12 2°59.01 5 34 14.7 102340 38
2010-04-28 07:34:11 51°17.117 2°59.005 4.7 279 14.7 102340 36
2010-04-28 07:34:16 51°17.113 2°58.999 4.7 34 14.7 102340 36
2010-04-28 07:34:22 51°17.109 2°58.991 4.4 285 14.7 102340 36
2010-04-28 07:34:27 51°17.105 2°58.985 4.3 35 14.7 102340 36
2010-04-28 07:34:31 51°17.103 2°58.98 4.4 285 14.7 102340 37
2010-04-28 07:34:37 51°17.098 2°58.972 4.4 232 14.7 102340 37
2010-04-28 07:34:42 51°17.095 2°58.965 4.7 286 14.7 102340 36
2010-04-28 07:34:47 51°17.092 2°58.959 4.9 32 14.7 102340 39
2010-04-28 07:34:51 51°17.089 2°58.953 4.9 283 14.7 102340 39
2010-04-28 07:34:56 51°17.086 2°58.947 4.9 33 14.7 102340 39
2010-04-28 07:35:02 51°17.081 2°58.939 4.5 20 14.7 102340 36
2010-04-28 07:35:07 51°17.078 2°58.932 4.6 233 14.7 102340 37
2010-04-28 07:35:11 51°17.076 2°58.927 4.6 282 14.7 102340 37
2010-04-28 07:35:16 51°17.072 2°58.92 4.6 31 14.7 102340 37
2010-04-28 07:35:22 51°17.068 2°58.913 4.6 279 14.7 102340 36
2010-04-28 07:35:27 51°17.065 2°58.906 4.9 233 14.7 102340 37
2010-04-28 07:35:31 51°17.063 2°58.901 4.8 278 14.7 102340 37
2010-04-28 07:35:37 51°17.058 2°58.893 4.7 33 14.7 102340 37
2010-04-28 07:35:42 51°17.055 2°58.887 4.4 285 14.7 102340 36
2010-04-28 07:35:47 51°17.052 2°58.88 4.4 35 14.7 102340 36
2010-04-28 07:35:51 51°17.049 2°58.875 4.1 280 14.7 102340 37
2010-04-28 07:35:57 51°17.045 2°58.867 4.2 33 14.7 102340 37
2010-04-28 07:36:02 51°17.042 2°58.861 4.6 20 14.8 102340 37
2010-04-28 07:36:07 51°17.038 2°58.855 5.1 234 14.8 102340 37
2010-04-28 07:36:11 51°17.036 2°58.85 5 279 14.8 102340 37
2010-04-28 07:36:17 51°17.032 2°58.842 4.4 35 14.8 102340 37
2010-04-28 07:36:22 51°17.029 2°58.836 4.8 284 14.8 102340 37
2010-04-28 07:36:27 51°17.026 2°58.829 5.3 33 14.8 102340 37
2010-04-28 07:36:31 51°17.023 2°58.824 4.7 285 14.8 102340 38
2010-04-28 07:36:36 51°17.02 2°58.818 5 232 14.8 102340 38
2010-04-28 07:36:42 51°17.016 2°58.81 4.8 284 14.8 102340 36
2010-04-28 07:36:47 51°17.013 2°58.804 4.8 33 14.8 102340 36
2010-04-28 07:36:51 51°17.01 2°58.799 5 284 14.8 102340 37
2010-04-28 07:36:56 51°17.007 2°58.793 4.6 31 14.8 102340 37
2010-04-28 07:37:02 51°17.003 2°58.785 4.7 25 14.8 102340 38
2010-04-28 07:37:07 51°16.999 2°58.779 5.1 233 14.8 102340 36
2010-04-28 07:37:11 51°16.997 2°58.773 5 284 14.8 102340 36
2010-04-28 07:37:16 51°16.994 2°58.767 4.6 34 14.8 102340 36
2010-04-28 07:37:22 51°16.99 2°58.76 4.9 283 14.8 102340 36
2010-04-28 07:37:27 51°16.987 2°58.753 4.6 234 14.9 102340 36
2010-04-28 07:37:31 51°16.984 2°58.748 4.8 284 14.9 102340 36
2010-04-28 07:37:36 51°16.981 2°58.742 4.6 233 14.9 102340 36
2010-04-28 07:37:41 51°16.978 2°58.736 4.4 277 14.9 102340 37
2010-04-28 07:37:47 51°16.974 2°58.728 4.2 34 14.9 102340 36
2010-04-28 07:37:51 51°16.971 2°58.723 4.7 280 14.9 102340 36
2010-04-28 07:37:57 51°16.967 2°58.716 4.1 31 14.9 102340 36
2010-04-28 07:38:02 51°16.964 2°58.71 4.4 22 14.9 102340 37
2010-04-28 07:38:07 51°16.961 2°58.703 4.3 235 14.9 102340 37
2010-04-28 07:38:11 51°16.958 2°58.698 4.3 279 14.9 102340 37
2010-04-28 07:38:17 51°16.954 2°58.691 4 34 14.9 102340 37
2010-04-28 07:38:22 51°16.951 2°58.685 4.2 279 14.9 102340 36
2010-04-28 07:38:27 51°16.948 2°58.678 3.8 32 14.9 102340 36
2010-04-28 07:38:31 51°16.945 2°58.673 4.1 284 14.9 102340 38
2010-04-28 07:38:37 51°16.941 2°58.666 3.6 33 14.9 102340 38
2010-04-28 07:38:42 51°16.938 2°58.66 3.8 282 14.9 102340 36
2010-04-28 07:38:47 51°16.935 2°58.654 3.7 34 14.9 102340 36
2010-04-28 07:38:51 51°16.932 2°58.649 4 282 14.9 102340 36
2010-04-28 07:38:56 51°16.929 2°58.643 3.8 234 14.9 102340 36
2010-04-28 07:39:01 51°16.926 2°58.637 4.4 284 14.9 102340 38
2010-04-28 07:39:07 51°16.922 2°58.629 3.8 33 15 102340 36
2010-04-28 07:39:11 51°16.919 2°58.624 4.3 284 15 102340 36
2010-04-28 07:39:16 51°16.916 2°58.618 4.3 33 15 102340 36
2010-04-28 07:39:22 51°16.911 2°58.611 3.9 279 15 102340 36
2010-04-28 07:39:27 51°16.908 2°58.605 4.2 232 15 102340 38
2010-04-28 07:39:31 51°16.906 2°58.6 4.1 284 15 102340 38
2010-04-28 07:39:37 51°16.902 2°58.592 3.8 232 15 102340 38
2010-04-28 07:39:41 51°16.899 2°58.587 4.1 283 15 102340 36
2010-04-28 07:39:47 51°16.895 2°58.58 4.4 231 15 102340 36
2010-04-28 07:39:51 51°16.892 2°58.575 4.7 285 15 102340 38
2010-04-28 07:39:57 51°16.888 2°58.567 4.2 35 15 102340 38
2010-04-28 07:40:01 51°16.886 2°58.563 4.3 22 15.1 102340 38
2010-04-28 07:40:07 51°16.882 2°58.555 4.1 31 15.1 102340 38
2010-04-28 07:40:11 51°16.879 2°58.55 4.3 278 15.1 102340 36
2010-04-28 07:40:16 51°16.876 2°58.544 4 35 15.1 102340 36
2010-04-28 07:40:22 51°16.872 2°58.536 4.2 279 15.1 102340 38
2010-04-28 07:40:27 51°16.868 2°58.53 3.6 33 15.1 102340 38
2010-04-28 07:40:31 51°16.866 2°58.525 3.9 282 15.1 102340 36
2010-04-28 07:40:37 51°16.862 2°58.518 4 35 15.1 102340 36
2010-04-28 07:40:42 51°16.859 2°58.512 4.2 280 15.1 102340 36
2010-04-28 07:40:47 51°16.855 2°58.506 4.5 32 15.1 102340 36
2010-04-28 07:40:51 51°16.853 2°58.501 4 286 15.1 102340 36
2010-04-28 07:40:57 51°16.849 2°58.493 4.1 34 15.1 102340 36
2010-04-28 07:41:02 51°16.846 2°58.487 4 29 15.1 102340 38
2010-04-28 07:41:07 51°16.842 2°58.481 4.3 32 15.1 102340 38
2010-04-28 07:41:11 51°16.84 2°58.476 4.4 280 15.1 102340 37
2010-04-28 07:41:16 51°16.836 2°58.47 4.4 38 15.1 102340 37
2010-04-28 07:41:22 51°16.833 2°58.462 4.4 285 15.1 102340 36
2010-04-28 07:41:27 51°16.829 2°58.456 4.1 34 15.1 102340 36
2010-04-28 07:41:31 51°16.826 2°58.451 4.2 277 15.1 102340 38
2010-04-28 07:41:37 51°16.822 2°58.443 4.2 38 15.1 102340 38
2010-04-28 07:41:42 51°16.819 2°58.437 4.2 284 15.1 102340 37
2010-04-28 07:41:47 51°16.816 2°58.431 3.8 32 15.1 102340 36
2010-04-28 07:41:51 51°16.813 2°58.426 4.1 284 15.1 102340 36
2010-04-28 07:41:57 51°16.809 2°58.418 3.8 38 15.1 102340 36
2010-04-28 07:42:02 51°16.806 2°58.412 4.1 20 15.1 102340 36
2010-04-28 07:42:07 51°16.802 2°58.406 3.8 39 15.2 102340 36
2010-04-28 07:42:11 51°16.8 2°58.401 4.1 285 15.2 102340 36
2010-04-28 07:42:17 51°16.796 2°58.393 4 230 15.2 102340 36
2010-04-28 07:42:21 51°16.793 2°58.388 3.9 284 15.1 102340 37
2010-04-28 07:42:27 51°16.789 2°58.38 3.8 38 15.1 102340 37
2010-04-28 07:42:31 51°16.787 2°58.375 3.8 285 15.2 102340 37
2010-04-28 07:42:36 51°16.783 2°58.369 3.7 34 15.2 102340 37
2010-04-28 07:42:41 51°16.78 2°58.362 3.8 277 15.2 102340 36
2010-04-28 07:42:47 51°16.776 2°58.355 4 32 15.2 102340 36
2010-04-28 07:42:51 51°16.773 2°58.35 3.7 281 15.2 102340 38
2010-04-28 07:42:56 51°16.77 2°58.344 4 36 15.2 102340 38
2010-04-28 07:43:02 51°16.766 2°58.336 4.2 27 15.2 102340 38
2010-04-28 07:43:07 51°16.763 2°58.33 3.6 40 15.2 102340 38
2010-04-28 07:43:11 51°16.76 2°58.325 3.7 284 15.2 102340 37
2010-04-28 07:43:17 51°16.756 2°58.317 3.7 40 15.2 102340 37
2010-04-28 07:43:22 51°16.752 2°58.311 4 277 15.2 102340 37
2010-04-28 07:43:27 51°16.749 2°58.305 3.9 34 15.2 102340 38
2010-04-28 07:43:31 51°16.746 2°58.299 3.8 283 15.2 102340 38
2010-04-28 07:43:36 51°16.743 2°58.293 3.9 230 15.2 102340 38
2010-04-28 07:43:42 51°16.739 2°58.286 3.8 284 15.2 102340 36
2010-04-28 07:43:47 51°16.736 2°58.279 3.9 41 15.2 102340 38
2010-04-28 07:43:51 51°16.733 2°58.274 4.1 278 15.2 102340 38
2010-04-28 07:43:56 51°16.729 2°58.268 4 33 15.2 102340 38
2010-04-28 07:44:02 51°16.725 2°58.261 4.3 23 15.2 102340 36
2010-04-28 07:44:07 51°16.722 2°58.254 4.2 39 15.2 102340 38
2010-04-28 07:44:11 51°16.719 2°58.249 4.3 279 15.2 102340 38
2010-04-28 07:44:17 51°16.715 2°58.242 4.4 38 15.2 102340 38
2010-04-28 07:44:21 51°16.713 2°58.237 4.5 284 15.2 102340 36
2010-04-28 07:44:27 51°16.709 2°58.229 4.7 38 15.2 102340 36
2010-04-28 07:44:31 51°16.706 2°58.224 4 284 15.2 102340 36
2010-04-28 07:44:37 51°16.702 2°58.217 4.4 33 15.2 102340 36
2010-04-28 07:44:41 51°16.699 2°58.212 4.5 284 15.2 102340 36
2010-04-28 07:44:47 51°16.695 2°58.204 5.1 35 15.2 102340 36
2010-04-28 07:44:51 51°16.692 2°58.199 4.4 284 15.2 102340 38
2010-04-28 07:44:56 51°16.689 2°58.193 4.8 37 15.2 102340 37
2010-04-28 07:45:02 51°16.685 2°58.185 5.4 282 15.2 102340 37
2010-04-28 07:45:07 51°16.681 2°58.179 5.1 39 15.2 102340 37
2010-04-28 07:45:11 51°16.679 2°58.174 4.7 279 15.2 102340 37
2010-04-28 07:45:17 51°16.675 2°58.167 5 33 15.2 102340 38
2010-04-28 07:45:22 51°16.671 2°58.161 4.9 277 15.2 102340 38
2010-04-28 07:45:27 51°16.668 2°58.154 4.7 34 15.2 102340 38
2010-04-28 07:45:31 51°16.665 2°58.149 4.6 281 15.2 102340 37
2010-04-28 07:45:37 51°16.661 2°58.142 4.7 33 15.2 102340 37
2010-04-28 07:45:42 51°16.658 2°58.135 5.1 276 15.2 102340 37
2010-04-28 07:45:47 51°16.654 2°58.129 4.4 40 15.2 102340 37
2010-04-28 07:45:51 51°16.652 2°58.124 4.6 277 15.2 102340 36
2010-04-28 07:45:56 51°16.649 2°58.118 4.4 37 15.2 102340 36
2010-04-28 07:46:02 51°16.645 2°58.11 4.8 27 15.2 102340 35
2010-04-28 07:46:07 51°16.641 2°58.104 4.4 32 15.2 102340 37
2010-04-28 07:46:11 51°16.639 2°58.099 4.5 281 15.2 102340 37
2010-04-28 07:46:16 51°16.635 2°58.092 4.4 232 15.2 102340 37
2010-04-28 07:46:21 51°16.632 2°58.086 5.4 283 15.3 102340 37
2010-04-28 07:46:27 51°16.628 2°58.078 4.6 235 15.3 102340 35
2010-04-28 07:46:31 51°16.626 2°58.072 5 284 15.3 102340 35
2010-04-28 07:46:36 51°16.623 2°58.066 4.7 235 15.3 102340 36
2010-04-28 07:46:41 51°16.62 2°58.059 4.8 277 15.3 102340 36
2010-04-28 07:46:47 51°16.617 2°58.051 4.9 237 15.3 102340 36
2010-04-28 07:46:51 51°16.614 2°58.046 4.3 285 15.3 102340 35
2010-04-28 07:46:57 51°16.611 2°58.037 5.1 32 15.4 102340 36
2010-04-28 07:47:02 51°16.608 2°58.03 4.5 27 15.4 102340 36
2010-04-28 07:47:07 51°16.605 2°58.023 4.9 238 15.4 102340 36
2010-04-28 07:47:11 51°16.603 2°58.018 4.3 283 15.4 102340 35
2010-04-28 07:47:17 51°16.6 2°58.009 4 239 15.4 102340 35
2010-04-28 07:47:21 51°16.598 2°58.004 4.5 279 15.4 102340 36
2010-04-28 07:47:27 51°16.595 2°57.995 4.4 31 15.4 102340 36
2010-04-28 07:47:31 51°16.593 2°57.99 4.4 277 15.4 102340 37
2010-04-28 07:47:37 51°16.59 2°57.981 4.6 32 15.4 102340 37
2010-04-28 07:47:42 51°16.587 2°57.974 4.4 285 15.4 102340 36
2010-04-28 07:47:47 51°16.584 2°57.967 4.8 237 15.4 102340 36
2010-04-28 07:47:51 51°16.582 2°57.961 4.7 278 15.5 102340 36
2010-04-28 07:47:57 51°16.579 2°57.953 4.3 239 15.5 102340 35
2010-04-28 07:48:02 51°16.576 2°57.946 4.3 -999 15.5 102340 35
2010-04-28 07:48:07 51°16.573 2°57.939 4.5 238 15.5 102340 37
2010-04-28 07:48:11 51°16.571 2°57.933 4.4 283 15.5 102340 37
2010-04-28 07:48:16 51°16.569 2°57.926 4.7 240 15.5 102340 37
2010-04-28 07:48:22 51°16.566 2°57.917 4.4 281 15.5 102340 36
2010-04-28 07:48:27 51°16.563 2°57.91 4.4 239 15.5 102340 36
2010-04-28 07:48:31 51°16.561 2°57.904 3.9 278 15.5 102340 36
2010-04-28 07:48:36 51°16.559 2°57.897 3.9 239 15.5 102340 36
2010-04-28 07:48:42 51°16.556 2°57.888 3.7 285 15.5 102340 34
2010-04-28 07:48:47 51°16.554 2°57.881 3.9 240 15.5 102340 36
2010-04-28 07:48:51 51°16.552 2°57.875 4.2 287 15.5 102340 36
2010-04-28 07:48:57 51°16.55 2°57.866 3.9 242 15.5 102340 36
2010-04-28 07:49:02 51°16.548 2°57.859 4 21 15.5 102340 35
2010-04-28 07:49:07 51°16.546 2°57.852 3.5 246 15.5 102340 35
2010-04-28 07:49:11 51°16.545 2°57.846 3.8 279 15.6 102340 37
2010-04-28 07:49:17 51°16.543 2°57.837 3.6 248 15.6 102340 37
2010-04-28 07:49:22 51°16.541 2°57.829 3.3 283 15.6 102350 36
2010-04-28 07:49:27 51°16.54 2°57.822 3.4 250 15.6 102350 36
2010-04-28 07:49:31 51°16.539 2°57.816 3.6 284 15.6 102340 36
2010-04-28 07:49:36 51°16.537 2°57.809 3.2 249 15.6 102340 35
2010-04-28 07:49:42 51°16.536 2°57.8 3.1 278 15.6 102340 35
2010-04-28 07:49:47 51°16.534 2°57.792 3 249 15.6 102340 35
2010-04-28 07:49:51 51°16.533 2°57.786 3.5 278 15.6 102340 35
2010-04-28 07:49:56 51°16.532 2°57.779 4.2 246 15.6 102350 37
2010-04-28 07:50:02 51°16.53 2°57.77 3.4 -999 15.6 102350 37
2010-04-28 07:50:06 51°16.529 2°57.764 3.1 249 15.7 102340 36
2010-04-28 07:50:11 51°16.528 2°57.757 3.4 284 15.7 102340 36
2010-04-28 07:50:16 51°16.527 2°57.749 3 249 15.7 102340 37
2010-04-28 07:50:22 51°16.525 2°57.74 2.8 285 15.7 102340 37
2010-04-28 07:50:27 51°16.524 2°57.733 3.1 22 15.7 102340 36
2010-04-28 07:50:31 51°16.523 2°57.727 3 276 15.7 102340 36
2010-04-28 07:50:36 51°16.522 2°57.72 3.1 249 15.7 102340 38
2010-04-28 07:50:41 51°16.521 2°57.713 2.7 282 15.7 102340 38
2010-04-28 07:50:47 51°16.52 2°57.704 2.8 247 15.7 102340 38
2010-04-28 07:50:51 51°16.518 2°57.698 3 284 15.7 102340 38
2010-04-28 07:50:56 51°16.518 2°57.691 3.3 246 15.7 102350 36
2010-04-28 07:51:01 51°16.516 2°57.684 2.9 283 15.7 102350 36
2010-04-28 07:51:07 51°16.515 2°57.675 3.4 246 15.8 102350 37
2010-04-28 07:51:11 51°16.514 2°57.669 3.4 282 15.8 102350 37
2010-04-28 07:51:16 51°16.513 2°57.662 3 247 15.8 102350 37
2010-04-28 07:51:22 51°16.511 2°57.652 3.2 276 15.8 102350 37
2010-04-28 07:51:26 51°16.51 2°57.645 3.1 246 15.8 102350 36
2010-04-28 07:51:31 51°16.509 2°57.636 3.5 277 15.8 102350 36
2010-04-28 07:51:36 51°16.508 2°57.628 3 245 15.8 102350 37
2010-04-28 07:51:41 51°16.506 2°57.619 3.2 277 15.8 102350 37
2010-04-28 07:51:47 51°16.504 2°57.608 3.1 246 15.8 102350 35
2010-04-28 07:51:51 51°16.503 2°57.6 3.2 284 15.8 102350 35
2010-04-28 07:51:56 51°16.502 2°57.59 3.2 22 15.8 102350 37
2010-04-28 07:52:02 51°16.501 2°57.578 3.4 -999 15.8 102350 37
2010-04-28 07:52:06 51°16.5 2°57.57 3.2 22 15.9 102350 35
2010-04-28 07:52:11 51°16.499 2°57.56 3.2 282 15.9 102350 35
2010-04-28 07:52:16 51°16.498 2°57.549 3.2 244 15.9 102340 36
2010-04-28 07:52:22 51°16.497 2°57.536 3.5 278 15.9 102340 36
2010-04-28 07:52:27 51°16.497 2°57.525 3.4 20 15.9 102350 36
2010-04-28 07:52:31 51°16.497 2°57.516 3.6 284 15.9 102350 36
2010-04-28 07:52:36 51°16.497 2°57.504 3.3 20 15.9 102350 38
2010-04-28 07:52:42 51°16.497 2°57.489 3.4 279 15.9 102350 38
2010-04-28 07:52:47 51°16.498 2°57.475 3.5 21 15.9 102350 36
2010-04-28 07:52:51 51°16.5 2°57.464 3.4 277 15.9 102350 36
2010-04-28 07:52:56 51°16.502 2°57.449 3.4 24 15.9 102350 36
2010-04-28 07:53:01 51°16.504 2°57.434 3.2 278 15.9 102350 36
2010-04-28 07:53:07 51°16.508 2°57.416 3 27 15.9 102350 37
2010-04-28 07:53:11 51°16.511 2°57.403 3.1 282 15.9 102350 37
2010-04-28 07:53:16 51°16.515 2°57.388 2.9 24 15.9 102350 37
2010-04-28 07:53:21 51°16.519 2°57.372 2.9 282 15.9 102350 37
2010-04-28 07:53:27 51°16.526 2°57.354 3.1 29 15.9 102340 37
2010-04-28 07:53:31 51°16.53 2°57.342 2.9 279 15.9 102340 37
2010-04-28 07:53:36 51°16.536 2°57.327 2.9 22 15.9 102350 36
2010-04-28 07:53:41 51°16.542 2°57.311 2.9 284 15.9 102350 36
2010-04-28 07:53:47 51°16.549 2°57.294 2.8 22 15.9 102350 36
2010-04-28 07:53:51 51°16.553 2°57.283 2.9 277 15.9 102350 36
2010-04-28 07:53:56 51°16.559 2°57.27 2.5 245 15.9 102350 35
2010-04-28 07:54:01 51°16.564 2°57.257 1.5 -999 15.9 102350 35
2010-04-28 07:54:07 51°16.571 2°57.244 2.1 249 15.9 102350 38
2010-04-28 07:54:11 51°16.575 2°57.236 1.9 281 15.9 102350 38
2010-04-28 07:54:16 51°16.58 2°57.226 2.3 254 15.9 102350 36
2010-04-28 07:54:22 51°16.587 2°57.216 2.1 285 15.9 102350 36
2010-04-28 07:54:27 51°16.592 2°57.208 2 259 15.9 102350 37
2010-04-28 07:54:31 51°16.596 2°57.202 1.5 286 15.9 102350 37
2010-04-28 07:54:36 51°16.601 2°57.195 1.2 262 15.9 102350 36
2010-04-28 07:54:42 51°16.607 2°57.188 0.2 282 15.9 102350 36
2010-04-28 07:54:47 51°16.611 2°57.183 0.1 266 15.9 102350 35
2010-04-28 07:54:51 51°16.615 2°57.179 0.1 281 15.9 102350 35
2010-04-28 07:54:56 51°16.619 2°57.174 -999 270 15.9 102350 37
2010-04-28 07:55:02 51°16.625 2°57.169 -999 79 15.9 102350 37
2010-04-28 07:55:07 51°16.629 2°57.165 -999 25 15.9 102350 37
2010-04-28 07:55:11 51°16.632 2°57.162 -999 78 15.9 102350 37
2010-04-28 07:55:16 51°16.636 2°57.159 -999 25 15.9 102350 37
2010-04-28 07:55:21 51°16.639 2°57.156 -999 79 15.9 102350 37
2010-04-28 07:55:27 51°16.644 2°57.153 0.1 23 15.9 102360 37
2010-04-28 07:55:31 51°16.647 2°57.151 0.1 79 15.9 102360 37
2010-04-28 07:55:36 51°16.65 2°57.149 0.8 30 15.9 102350 37
2010-04-28 07:55:41 51°16.654 2°57.146 0.7 75 15.9 102350 37
2010-04-28 07:55:47 51°16.658 2°57.144 0.1 22 15.9 102350 37
2010-04-28 07:55:51 51°16.66 2°57.143 0.2 75 15.9 102350 37
2010-04-28 07:55:56 51°16.663 2°57.141 0.2 22 15.9 102350 37
2010-04-28 07:56:01 51°16.666 2°57.14 0.1 -999 15.9 102350 37
2010-04-28 07:56:07 51°16.67 2°57.138 0.1 28 15.8 102360 37
2010-04-28 07:56:11 51°16.672 2°57.137 0.1 79 15.8 102360 37
2010-04-28 07:56:16 51°16.674 2°57.136 0.1 21 15.8 102350 37
2010-04-28 07:56:22 51°16.678 2°57.135 0.1 78 15.8 102350 37
2010-04-28 07:56:26 51°16.68 2°57.134 0.1 25 15.8 102360 37
2010-04-28 07:56:31 51°16.683 2°57.133 -999 78 15.8 102360 37
2010-04-28 07:56:36 51°16.686 2°57.132 -999 24 15.8 102360 36
2010-04-28 07:56:41 51°16.689 2°57.132 -999 79 15.8 102360 36
2010-04-28 07:56:47 51°16.694 2°57.131 -999 30 15.8 102350 37
2010-04-28 07:56:51 51°16.697 2°57.13 -999 79 15.8 102350 37
2010-04-28 07:56:56 51°16.701 2°57.129 -999 26 15.8 102360 37
2010-04-28 07:57:02 51°16.707 2°57.129 0.1 78 15.8 102360 37
2010-04-28 07:57:07 51°16.712 2°57.13 0.1 25 15.8 102360 37
2010-04-28 07:57:11 51°16.716 2°57.131 0.1 78 15.8 102360 37
2010-04-28 07:57:16 51°16.722 2°57.132 -999 24 15.8 102360 37
2010-04-28 07:57:22 51°16.729 2°57.135 -999 353 15.8 102360 37
2010-04-28 07:57:27 51°16.735 2°57.138 -999 24 15.9 102360 37
2010-04-28 07:57:31 51°16.74 2°57.141 -999 34 15.9 102360 37
2010-04-28 07:57:36 51°16.745 2°57.146 -999 29 15.9 102360 37
2010-04-28 07:57:41 51°16.751 2°57.151 -999 19 15.9 102360 37
2010-04-28 07:57:47 51°16.758 2°57.158 -999 12 15.9 102360 37
2010-04-28 07:57:51 51°16.763 2°57.165 -999 13 15.9 102360 37
2010-04-28 07:57:56 51°16.769 2°57.174 0.1 8 15.9 102360 37
2010-04-28 07:58:01 51°16.774 2°57.184 0.2 -999 15.9 102360 37
2010-04-28 07:58:06 51°16.778 2°57.195 2 3 15.9 102360 37
2010-04-28 07:58:11 51°16.782 2°57.207 2.5 1 15.9 102360 37
2010-04-28 07:58:16 51°16.785 2°57.221 3 358 15.9 102360 37
2010-04-28 07:58:21 51°16.787 2°57.235 2.9 358 15.9 102360 37
2010-04-28 07:58:26 51°16.789 2°57.249 3.2 356 15.9 102360 38
2010-04-28 07:58:31 51°16.79 2°57.264 3.5 355 15.9 102360 38
2010-04-28 07:58:36 51°16.789 2°57.28 3.7 354 15.8 102360 36
2010-04-28 07:58:41 51°16.788 2°57.295 4 353 15.8 102360 36
2010-04-28 07:58:47 51°16.785 2°57.313 4.3 351 15.8 102350 38
2010-04-28 07:58:51 51°16.781 2°57.324 4.6 351 15.8 102350 38
2010-04-28 07:58:56 51°16.776 2°57.336 4.4 349 15.8 102350 36
2010-04-28 07:59:02 51°16.768 2°57.347 4.3 348 15.8 102350 36
2010-04-28 07:59:07 51°16.762 2°57.355 4.1 348 15.7 102350 38
2010-04-28 07:59:11 51°16.757 2°57.361 4 278 15.7 102350 38
2010-04-28 07:59:16 51°16.751 2°57.367 3.9 348 15.7 102350 37
2010-04-28 07:59:22 51°16.744 2°57.374 4 278 15.7 102350 37
2010-04-28 07:59:27 51°16.738 2°57.378 3.7 347 15.6 102350 37
2010-04-28 07:59:31 51°16.734 2°57.381 3.7 347 15.6 102350 37
2010-04-28 07:59:36 51°16.728 2°57.385 3.8 347 15.6 102350 38
2010-04-28 07:59:42 51°16.722 2°57.389 3.6 279 15.6 102350 38
2010-04-28 07:59:47 51°16.716 2°57.392 3.4 348 15.6 102350 36
2010-04-28 07:59:51 51°16.712 2°57.393 3.4 348 15.6 102350 36
2010-04-28 07:59:56 51°16.707 2°57.396 3.6 347 15.6 102350 36
2010-04-28 08:00:01 51°16.702 2°57.397 3.6 282 15.6 102350 36
2010-04-28 08:00:06 51°16.697 2°57.399 3.6 347 15.5 102350 38
2010-04-28 08:00:11 51°16.692 2°57.4 3.8 277 15.5 102350 38
2010-04-28 08:00:16 51°16.687 2°57.401 3.5 346 15.5 102350 36
2010-04-28 08:00:21 51°16.683 2°57.402 3.4 346 15.5 102350 36
2010-04-28 08:00:26 51°16.678 2°57.402 3.5 345 15.5 102350 36
2010-04-28 08:00:31 51°16.673 2°57.403 3.4 282 15.5 102350 36
2010-04-28 08:00:36 51°16.669 2°57.402 3.3 344 15.5 102350 36
2010-04-28 08:00:41 51°16.665 2°57.402 3.5 278 15.5 102350 36
2010-04-28 08:00:47 51°16.659 2°57.401 3.3 344 15.5 102350 38
2010-04-28 08:00:51 51°16.656 2°57.401 3.3 284 15.5 102350 38
2010-04-28 08:00:56 51°16.652 2°57.4 3.3 343 15.5 102350 37
2010-04-28 08:01:02 51°16.647 2°57.399 3.4 286 15.5 102350 37
2010-04-28 08:01:06 51°16.644 2°57.398 3.1 343 15.5 102360 38
2010-04-28 08:01:11 51°16.64 2°57.397 3.1 282 15.5 102360 38
2010-04-28 08:01:16 51°16.636 2°57.395 3.1 342 15.5 102360 37
2010-04-28 08:01:22 51°16.631 2°57.393 3.2 283 15.5 102360 37
2010-04-28 08:01:27 51°16.627 2°57.392 3.3 340 15.6 102350 36
2010-04-28 08:01:31 51°16.625 2°57.391 3.3 277 15.6 102350 36
2010-04-28 08:01:36 51°16.621 2°57.389 3.2 342 15.6 102350 36
2010-04-28 08:01:42 51°16.617 2°57.387 3.1 280 15.6 102350 36
2010-04-28 08:01:47 51°16.613 2°57.386 3.1 341 15.6 102350 38
2010-04-28 08:01:51 51°16.61 2°57.384 3 280 15.6 102350 38
2010-04-28 08:01:56 51°16.607 2°57.382 3.2 342 15.7 102360 37
2010-04-28 08:02:01 51°16.603 2°57.381 3.3 281 15.7 102360 37
2010-04-28 08:02:07 51°16.599 2°57.378 3.4 341 15.7 102360 37
2010-04-28 08:02:11 51°16.596 2°57.377 3.7 285 15.7 102360 37
2010-04-28 08:02:16 51°16.591 2°57.374 3.9 338 15.7 102360 38
2010-04-28 08:02:22 51°16.586 2°57.371 3.8 285 15.7 102360 38
2010-04-28 08:02:26 51°16.582 2°57.368 4 332 15.7 102360 36
2010-04-28 08:02:31 51°16.577 2°57.364 4.2 283 15.7 102360 36
2010-04-28 08:02:36 51°16.572 2°57.359 4.2 328 15.7 102360 36
2010-04-28 08:02:41 51°16.567 2°57.353 4.2 278 15.7 102360 36
2010-04-28 08:02:47 51°16.561 2°57.344 4.4 323 15.7 102360 38
2010-04-28 08:02:51 51°16.557 2°57.337 4.6 280 15.7 102360 38
2010-04-28 08:02:56 51°16.553 2°57.328 4.7 318 15.7 102360 37
2010-04-28 08:03:02 51°16.547 2°57.315 4.6 278 15.7 102360 37
2010-04-28 08:03:06 51°16.545 2°57.305 5 315 15.7 102360 38
2010-04-28 08:03:11 51°16.541 2°57.291 5.5 284 15.7 102360 38
2010-04-28 08:03:16 51°16.537 2°57.276 5.8 318 15.7 102350 38
2010-04-28 08:03:22 51°16.531 2°57.256 6.2 278 15.7 102350 38
2010-04-28 08:03:27 51°16.526 2°57.237 6.8 319 15.6 102360 36
2010-04-28 08:03:31 51°16.522 2°57.222 7.2 281 15.6 102360 36
2010-04-28 08:03:36 51°16.515 2°57.201 6.9 319 15.6 102360 36
2010-04-28 08:03:42 51°16.508 2°57.174 7.5 279 15.6 102360 36
2010-04-28 08:03:46 51°16.502 2°57.154 7.6 320 15.6 102350 37
2010-04-28 08:03:51 51°16.495 2°57.129 8 282 15.6 102350 37
2010-04-28 08:03:56 51°16.488 2°57.104 8.2 320 15.6 102350 37
2010-04-28 08:04:01 51°16.48 2°57.077 8.4 286 15.6 102350 37
2010-04-28 08:04:07 51°16.471 2°57.044 7.9 320 15.6 102350 38
2010-04-28 08:04:11 51°16.465 2°57.022 8.6 283 15.6 102350 38
2010-04-28 08:04:16 51°16.458 2°56.994 8.3 318 15.5 102350 36
2010-04-28 08:04:21 51°16.45 2°56.966 7.9 284 15.5 102350 36
2010-04-28 08:04:27 51°16.442 2°56.931 8.3 318 15.5 102350 37
2010-04-28 08:04:31 51°16.436 2°56.908 8.2 280 15.5 102350 37
2010-04-28 08:04:36 51°16.429 2°56.879 8.3 317 15.5 102350 36
2010-04-28 08:04:41 51°16.422 2°56.85 8.4 282 15.5 102350 36
2010-04-28 08:04:47 51°16.414 2°56.814 8.4 319 15.5 102350 37
2010-04-28 08:04:51 51°16.409 2°56.791 7.8 285 15.5 102350 37
2010-04-28 08:04:56 51°16.402 2°56.761 7.8 319 15.6 102340 37
2010-04-28 08:05:02 51°16.394 2°56.725 8.3 285 15.6 102340 37
2010-04-28 08:05:06 51°16.388 2°56.701 7.4 321 15.6 102350 36
2010-04-28 08:05:11 51°16.382 2°56.671 8.2 278 15.6 102350 36
2010-04-28 08:05:16 51°16.374 2°56.642 7.4 321 15.6 102350 37
2010-04-28 08:05:22 51°16.365 2°56.606 8.2 280 15.6 102350 37
2010-04-28 08:05:27 51°16.358 2°56.576 8.2 321 15.6 102350 37
2010-04-28 08:05:31 51°16.352 2°56.552 7.3 277 15.6 102350 37
2010-04-28 08:05:36 51°16.344 2°56.522 7.6 321 15.7 102350 35
2010-04-28 08:05:42 51°16.335 2°56.486 7.7 282 15.7 102350 35
2010-04-28 08:05:46 51°16.329 2°56.462 7.5 321 15.7 102350 37
2010-04-28 08:05:51 51°16.323 2°56.431 8.2 279 15.7 102350 37
2010-04-28 08:05:56 51°16.317 2°56.4 7.6 321 15.7 102350 36
2010-04-28 08:06:02 51°16.31 2°56.363 8.3 279 15.7 102350 36
2010-04-28 08:06:07 51°16.303 2°56.332 7.7 320 15.7 102350 35
2010-04-28 08:06:11 51°16.299 2°56.307 7.2 280 15.7 102350 35
2010-04-28 08:06:16 51°16.293 2°56.276 7.6 320 15.8 102350 35
2010-04-28 08:06:22 51°16.287 2°56.239 7.9 278 15.8 102350 35
2010-04-28 08:06:27 51°16.281 2°56.208 8.2 320 15.8 102350 35
2010-04-28 08:06:31 51°16.277 2°56.183 8.4 280 15.8 102350 35
2010-04-28 08:06:36 51°16.271 2°56.151 8.1 320 15.8 102350 37
2010-04-28 08:06:41 51°16.265 2°56.12 8.4 285 15.8 102350 37
2010-04-28 08:06:47 51°16.258 2°56.082 7.8 321 15.8 102350 37
2010-04-28 08:06:51 51°16.253 2°56.057 8.4 285 15.8 102350 37
2010-04-28 08:06:56 51°16.247 2°56.026 7.9 320 15.7 102350 36
2010-04-28 08:07:01 51°16.241 2°55.995 7.9 280 15.7 102350 36
2010-04-28 08:07:06 51°16.234 2°55.964 7.7 319 15.7 102350 38
2010-04-28 08:07:11 51°16.228 2°55.933 7.7 285 15.7 102350 38
2010-04-28 08:07:16 51°16.222 2°55.901 7.8 319 15.6 102350 37
2010-04-28 08:07:22 51°16.214 2°55.863 7.5 279 15.6 102350 37
2010-04-28 08:07:27 51°16.209 2°55.832 7.8 319 15.6 102350 37
2010-04-28 08:07:31 51°16.204 2°55.806 7.3 284 15.6 102350 37
2010-04-28 08:07:36 51°16.199 2°55.775 7.9 318 15.6 102350 38
2010-04-28 08:07:41 51°16.194 2°55.743 7.6 281 15.6 102350 38
2010-04-28 08:07:47 51°16.188 2°55.704 8 317 15.6 102350 38
2010-04-28 08:07:51 51°16.184 2°55.679 7.1 277 15.6 102350 38
2010-04-28 08:07:56 51°16.179 2°55.646 7.5 319 15.6 102350 36
2010-04-28 08:08:02 51°16.174 2°55.608 6.8 284 15.6 102350 36
2010-04-28 08:08:07 51°16.171 2°55.575 7.3 319 15.6 102350 37
2010-04-28 08:08:11 51°16.168 2°55.549 7.2 285 15.6 102350 37
2010-04-28 08:08:16 51°16.164 2°55.517 7.6 319 15.7 102350 38
2010-04-28 08:08:22 51°16.16 2°55.478 6.9 278 15.7 102350 38
2010-04-28 08:08:27 51°16.157 2°55.445 7.7 323 15.6 102350 38
2010-04-28 08:08:31 51°16.155 2°55.419 7.4 283 15.6 102350 38
2010-04-28 08:08:36 51°16.152 2°55.386 7.6 320 15.6 102350 37
2010-04-28 08:08:41 51°16.148 2°55.354 7.4 279 15.6 102350 37
2010-04-28 08:08:47 51°16.144 2°55.315 7.6 320 15.6 102360 38
2010-04-28 08:08:51 51°16.141 2°55.289 7.9 281 15.6 102360 38
2010-04-28 08:08:56 51°16.137 2°55.256 7.6 323 15.5 102350 37
2010-04-28 08:09:01 51°16.134 2°55.223 7.5 279 15.5 102350 37
2010-04-28 08:09:07 51°16.129 2°55.184 7.4 322 15.4 102350 37
2010-04-28 08:09:11 51°16.126 2°55.158 7.2 279 15.4 102350 37
2010-04-28 08:09:16 51°16.122 2°55.126 7.7 322 15.4 102350 38
2010-04-28 08:09:21 51°16.119 2°55.093 7.9 283 15.4 102350 38
2010-04-28 08:09:27 51°16.114 2°55.054 7.3 323 15.3 102350 37
2010-04-28 08:09:31 51°16.111 2°55.028 7.6 283 15.3 102350 37
2010-04-28 08:09:36 51°16.108 2°54.995 7.1 323 15.3 102350 39
2010-04-28 08:09:41 51°16.105 2°54.962 7.9 278 15.3 102350 39
2010-04-28 08:09:47 51°16.101 2°54.923 7.7 322 15.3 102360 37
2010-04-28 08:09:51 51°16.098 2°54.897 7.3 277 15.3 102360 37
2010-04-28 08:09:56 51°16.095 2°54.864 7.2 323 15.2 102360 37
2010-04-28 08:10:02 51°16.091 2°54.824 7.4 286 15.2 102360 37
2010-04-28 08:10:07 51°16.088 2°54.792 7.2 323 15.1 102350 38
2010-04-28 08:10:11 51°16.085 2°54.765 7.9 284 15.1 102350 38
2010-04-28 08:10:16 51°16.082 2°54.732 7.7 322 15 102350 38
2010-04-28 08:10:22 51°16.079 2°54.693 7.4 279 15 102350 38
2010-04-28 08:10:27 51°16.076 2°54.66 7.7 322 15 102350 38
2010-04-28 08:10:31 51°16.074 2°54.634 8.3 280 15 102350 38
2010-04-28 08:10:36 51°16.071 2°54.601 8.3 321 15 102360 38
2010-04-28 08:10:41 51°16.069 2°54.568 8.2 284 15 102360 38
2010-04-28 08:10:47 51°16.065 2°54.528 7.7 321 14.9 102350 38
2010-04-28 08:10:51 51°16.063 2°54.502 8.5 283 14.9 102350 38
2010-04-28 08:10:56 51°16.06 2°54.469 8.7 321 14.9 102360 38
2010-04-28 08:11:01 51°16.057 2°54.436 8.7 283 14.9 102360 38
2010-04-28 08:11:06 51°16.054 2°54.403 7.8 320 14.8 102360 39
2010-04-28 08:11:11 51°16.05 2°54.37 8.7 283 14.8 102360 39
2010-04-28 08:11:16 51°16.047 2°54.337 8.7 319 14.8 102350 39
2010-04-28 08:11:21 51°16.044 2°54.304 7.7 279 14.8 102350 39
2010-04-28 08:11:26 51°16.041 2°54.271 8.5 320 14.7 102350 38
2010-04-28 08:11:31 51°16.038 2°54.238 8.4 284 14.7 102350 38
2010-04-28 08:11:36 51°16.035 2°54.205 8.2 320 14.7 102350 39
2010-04-28 08:11:41 51°16.032 2°54.171 8.1 283 14.7 102350 39
2010-04-28 08:11:47 51°16.028 2°54.132 7.9 319 14.7 102350 38
2010-04-28 08:11:51 51°16.025 2°54.105 7.8 285 14.7 102350 38
2010-04-28 08:11:56 51°16.022 2°54.072 8 319 14.7 102350 38
2010-04-28 08:12:02 51°16.018 2°54.032 8.3 284 14.7 102350 38
2010-04-28 08:12:06 51°16.016 2°54.006 8.6 318 14.7 102350 38
2010-04-28 08:12:11 51°16.012 2°53.973 8.3 281 14.7 102350 38
2010-04-28 08:12:16 51°16.009 2°53.94 8.3 319 14.8 102350 38
2010-04-28 08:12:22 51°16.005 2°53.9 7.7 278 14.8 102350 38
2010-04-28 08:12:27 51°16.001 2°53.867 8.6 318 14.8 102350 38
2010-04-28 08:12:31 51°15.998 2°53.84 7.7 278 14.8 102350 38
2010-04-28 08:12:36 51°15.995 2°53.807 7.6 319 14.8 102350 37
2010-04-28 08:12:42 51°15.991 2°53.767 7.8 285 14.8 102350 37
2010-04-28 08:12:46 51°15.989 2°53.741 8.6 319 14.9 102350 38
2010-04-28 08:12:51 51°15.985 2°53.708 8.2 280 14.9 102350 38
2010-04-28 08:12:56 51°15.982 2°53.675 7.7 319 14.9 102360 38
2010-04-28 08:13:02 51°15.978 2°53.635 8.7 286 14.9 102360 38
2010-04-28 08:13:07 51°15.975 2°53.602 8.3 320 14.9 102350 38
2010-04-28 08:13:11 51°15.972 2°53.576 8.7 279 14.9 102350 38
2010-04-28 08:13:16 51°15.968 2°53.543 7.8 319 14.9 102350 39
2010-04-28 08:13:21 51°15.963 2°53.51 8.5 279 14.9 102350 39
2010-04-28 08:13:27 51°15.958 2°53.471 8 320 14.9 102350 37
2010-04-28 08:13:31 51°15.954 2°53.445 8 278 14.9 102350 37
2010-04-28 08:13:36 51°15.95 2°53.412 7.5 320 14.9 102350 39
2010-04-28 08:13:41 51°15.945 2°53.379 7.9 280 14.9 102350 39
2010-04-28 08:13:47 51°15.939 2°53.34 8.1 320 14.9 102350 38
2010-04-28 08:13:51 51°15.935 2°53.314 8.3 282 14.9 102350 38
2010-04-28 08:13:56 51°15.93 2°53.282 8.3 321 14.9 102350 39
2010-04-28 08:14:02 51°15.924 2°53.243 7.4 283 14.9 102350 39
2010-04-28 08:14:06 51°15.919 2°53.218 8.2 321 14.9 102350 39
2010-04-28 08:14:11 51°15.914 2°53.186 7.5 278 14.9 102350 39
2010-04-28 08:14:16 51°15.909 2°53.154 8 322 14.9 102360 39
2010-04-28 08:14:22 51°15.903 2°53.115 8.1 279 14.9 102360 39
2010-04-28 08:14:27 51°15.898 2°53.082 8.2 321 15 102350 39
2010-04-28 08:14:31 51°15.894 2°53.057 7.5 279 15 102350 39
2010-04-28 08:14:36 51°15.888 2°53.025 8.3 320 14.9 102360 39
2010-04-28 08:14:41 51°15.883 2°52.993 7.5 283 14.9 102360 39
2010-04-28 08:14:47 51°15.877 2°52.954 8 320 14.9 102360 39
2010-04-28 08:14:51 51°15.872 2°52.929 8.1 278 14.9 102360 39
2010-04-28 08:14:56 51°15.868 2°52.896 8.4 320 14.9 102360 38
2010-04-28 08:15:02 51°15.861 2°52.858 8.2 278 14.9 102360 38
2010-04-28 08:15:07 51°15.856 2°52.826 8.4 321 14.9 102360 39
2010-04-28 08:15:11 51°15.852 2°52.8 8.5 280 14.9 102360 39
2010-04-28 08:15:16 51°15.847 2°52.768 8.7 320 14.9 102360 37
2010-04-28 08:15:21 51°15.841 2°52.736 7.9 285 14.9 102360 37
2010-04-28 08:15:27 51°15.835 2°52.697 8.7 320 14.8 102360 38
2010-04-28 08:15:31 51°15.831 2°52.671 7.6 282 14.8 102360 38
2010-04-28 08:15:36 51°15.826 2°52.639 8.7 320 14.8 102360 39
2010-04-28 08:15:41 51°15.821 2°52.607 7.7 280 14.8 102360 39
2010-04-28 08:15:47 51°15.815 2°52.568 7.8 321 14.7 102360 38
2010-04-28 08:15:51 51°15.811 2°52.543 7.7 286 14.7 102360 38
2010-04-28 08:15:56 51°15.806 2°52.51 8.5 321 14.7 102360 39
2010-04-28 08:16:01 51°15.801 2°52.478 8.5 282 14.7 102360 39
2010-04-28 08:16:06 51°15.795 2°52.446 8.2 321 14.7 102360 39
2010-04-28 08:16:11 51°15.79 2°52.414 8.5 283 14.7 102360 39
2010-04-28 08:16:16 51°15.785 2°52.382 8.5 321 14.7 102360 39
2010-04-28 08:16:22 51°15.779 2°52.343 7.8 279 14.7 102360 39
2010-04-28 08:16:27 51°15.773 2°52.311 8.4 321 14.6 102360 38
2010-04-28 08:16:31 51°15.769 2°52.286 8.4 280 14.6 102360 38
2010-04-28 08:16:36 51°15.764 2°52.253 7.5 320 14.6 102360 38
2010-04-28 08:16:41 51°15.759 2°52.221 8.3 283 14.6 102360 38
2010-04-28 08:16:47 51°15.753 2°52.183 8 320 14.6 102360 40
2010-04-28 08:16:51 51°15.748 2°52.157 8 279 14.6 102360 40
2010-04-28 08:16:56 51°15.744 2°52.125 7.4 321 14.6 102350 39
2010-04-28 08:17:02 51°15.737 2°52.087 8.1 279 14.6 102350 39
2010-04-28 08:17:07 51°15.732 2°52.055 7.5 322 14.6 102350 39
2010-04-28 08:17:11 51°15.728 2°52.029 7.5 278 14.6 102350 39
2010-04-28 08:17:16 51°15.723 2°51.997 7.3 322 14.6 102360 39
2010-04-28 08:17:22 51°15.716 2°51.959 8.3 279 14.6 102360 39
2010-04-28 08:17:27 51°15.711 2°51.927 7.9 322 14.6 102360 39
2010-04-28 08:17:31 51°15.707 2°51.901 7.4 279 14.6 102360 39
2010-04-28 08:17:36 51°15.702 2°51.869 7.6 320 14.6 102360 38
2010-04-28 08:17:41 51°15.697 2°51.837 8.3 278 14.6 102360 38
2010-04-28 08:17:47 51°15.691 2°51.799 8.3 320 14.6 102360 38
2010-04-28 08:17:51 51°15.687 2°51.773 7.3 285 14.6 102360 38
2010-04-28 08:17:56 51°15.682 2°51.741 8.3 322 14.6 102360 37
2010-04-28 08:18:01 51°15.677 2°51.709 8.2 284 14.6 102360 37
2010-04-28 08:18:06 51°15.673 2°51.677 8.4 322 14.6 102370 40
2010-04-28 08:18:11 51°15.668 2°51.645 8.5 276 14.6 102370 40
2010-04-28 08:18:16 51°15.663 2°51.612 8.2 322 14.6 102360 38
2010-04-28 08:18:21 51°15.658 2°51.581 8.5 285 14.6 102360 38
2010-04-28 08:18:27 51°15.652 2°51.543 8.6 323 14.5 102360 39
2010-04-28 08:18:31 51°15.647 2°51.518 8.3 278 14.5 102360 39
2010-04-28 08:18:36 51°15.639 2°51.487 8.8 325 14.5 102360 40
2010-04-28 08:18:41 51°15.629 2°51.459 8.1 281 14.5 102360 40
2010-04-28 08:18:47 51°15.614 2°51.428 8 325 14.5 102360 39
2010-04-28 08:18:51 51°15.603 2°51.409 7.7 284 14.5 102360 39
2010-04-28 08:18:56 51°15.591 2°51.383 7.9 324 14.5 102360 38
2010-04-28 08:19:02 51°15.576 2°51.353 8.2 281 14.5 102360 38
2010-04-28 08:19:07 51°15.564 2°51.326 9 324 14.5 102360 38
2010-04-28 08:19:11 51°15.554 2°51.305 7.9 282 14.5 102360 38
2010-04-28 08:19:16 51°15.543 2°51.277 7.9 325 14.5 102360 39
2010-04-28 08:19:22 51°15.529 2°51.244 7.9 282 14.5 102360 39
2010-04-28 08:19:27 51°15.517 2°51.217 8.6 324 14.5 102360 38
2010-04-28 08:19:31 51°15.508 2°51.195 8.3 285 14.5 102360 38